• In Netherlands
  • List of Countries
  • For 7 days
  • Water Temperature
  • Satellite Maps
  • Weather Map
  • Weather Widgets
  • user-avatar
    Login

    Hourly Weather San Miguel de Tucumán

    Today, 25 June, Sunday

    Time Temperature Precipitation Wind Pressure Humidity
    00:00 +19°C° 0 mm 4 mps 716 mmHg 69%
    01:00 +19°C° 0 mm 4 mps 716 mmHg 65%
    02:00 +19°C° 0 mm 4 mps 716 mmHg 62%
    03:00 +19°C° 0 mm 4 mps 716 mmHg 61%
    04:00 +19°C° 0 mm 4 mps 715 mmHg 61%
    05:00 +18°C° 0 mm 4 mps 715 mmHg 61%
    06:00 +19°C° 0 mm 4 mps 715 mmHg 60%
    07:00 +19°C° 0 mm 4 mps 715 mmHg 60%
    08:00 +19°C° 0 mm 4 mps 715 mmHg 59%
    09:00 +22°C° 0 mm 4 mps 715 mmHg 53%
    10:00 +26°C° 0 mm 5 mps 716 mmHg 47%
    11:00 +29°C° 0 mm 6 mps 716 mmHg 40%
    12:00 +30°C° 0 mm 6 mps 715 mmHg 39%
    13:00 +32°C° 0 mm 6 mps 715 mmHg 38%
    14:00 +33°C° 0 mm 6 mps 714 mmHg 37%
    15:00 +32°C° 0 mm 6 mps 714 mmHg 42%
    16:00 +29°C° 0 mm 5 mps 714 mmHg 48%
    17:00 +28°C° 0 mm 5 mps 714 mmHg 53%
    18:00 +27°C° 0 mm 5 mps 714 mmHg 56%
    19:00 +25°C° 0 mm 5 mps 714 mmHg 59%
    20:00 +23°C° 0 mm 4 mps 715 mmHg 62%
    21:00 +23°C° 0 mm 4 mps 715 mmHg 60%
    22:00 +22°C° 0 mm 4 mps 715 mmHg 59%
    23:00 +22°C° 0 mm 4 mps 715 mmHg 57%

    Tomorrow, 26 June, Monday

    Time Temperature Precipitation Wind Pressure Humidity
    00:00 +22°C° 0 mm 4 mps 714 mmHg 58%
    01:00 +22°C° 0 mm 5 mps 714 mmHg 59%
    02:00 +21°C° 0 mm 5 mps 714 mmHg 60%
    03:00 +21°C° 0 mm 5 mps 713 mmHg 61%
    04:00 +21°C° 0 mm 5 mps 713 mmHg 62%
    05:00 +21°C° 0 mm 5 mps 712 mmHg 63%
    06:00 +21°C° 0 mm 5 mps 712 mmHg 62%
    07:00 +21°C° 0 mm 5 mps 712 mmHg 62%
    08:00 +21°C° 0 mm 5 mps 713 mmHg 62%
    09:00 +25°C° 0 mm 5 mps 713 mmHg 56%
    10:00 +27°C° 0 mm 6 mps 713 mmHg 51%
    11:00 +29°C° 0 mm 6 mps 713 mmHg 46%
    12:00 +30°C° 0 mm 6 mps 712 mmHg 44%
    13:00 +32°C° 0 mm 6 mps 711 mmHg 42%
    14:00 +33°C° 0 mm 7 mps 710 mmHg 40%
    15:00 +32°C° 0 mm 6 mps 710 mmHg 44%
    16:00 +29°C° 0 mm 5 mps 711 mmHg 48%
    17:00 +28°C° 0 mm 4 mps 711 mmHg 53%
    18:00 +27°C° 0 mm 4 mps 711 mmHg 55%
    19:00 +25°C° 0 mm 4 mps 712 mmHg 58%
    20:00 +23°C° 0 mm 4 mps 713 mmHg 61%
    21:00 +22°C° 0 mm 4 mps 713 mmHg 62%
    22:00 +22°C° 0 mm 4 mps 713 mmHg 63%
    23:00 +21°C° 0 mm 3 mps 713 mmHg 64%

    Day after tomorrow, 27 June, Tuesday

    Time Temperature Precipitation Wind Pressure Humidity
    00:00 +21°C° 0 mm 3 mps 713 mmHg 67%
    01:00 +20°C° 0 mm 3 mps 713 mmHg 70%
    02:00 +20°C° 0 mm 3 mps 713 mmHg 72%
    03:00 +19°C° 0 mm 3 mps 714 mmHg 74%
    04:00 +19°C° 0 mm 3 mps 714 mmHg 77%
    05:00 +19°C° 0 mm 3 mps 715 mmHg 79%
    06:00 +19°C° 0.1 mm 3 mps 716 mmHg 78%
    07:00 +18°C° 0.1 mm 3 mps 717 mmHg 78%
    08:00 +18°C° 0.1 mm 3 mps 718 mmHg 78%
    09:00 +19°C° 0 mm 3 mps 718 mmHg 74%
    10:00 +20°C° 0 mm 3 mps 719 mmHg 70%
    11:00 +20°C° 0 mm 3 mps 719 mmHg 67%
    12:00 +21°C° 0 mm 3 mps 719 mmHg 60%
    13:00 +22°C° 0 mm 3 mps 719 mmHg 53%
    14:00 +24°C° 0 mm 3 mps 719 mmHg 46%
    15:00 +22°C° 0 mm 3 mps 719 mmHg 47%
    16:00 +21°C° 0 mm 3 mps 719 mmHg 49%
    17:00 +20°C° 0 mm 3 mps 719 mmHg 50%
    18:00 +19°C° 0 mm 2 mps 720 mmHg 56%
    19:00 +17°C° 0 mm 2 mps 721 mmHg 61%
    20:00 +15°C° 0 mm 2 mps 722 mmHg 66%
    21:00 +15°C° 0 mm 2 mps 722 mmHg 67%
    22:00 +14°C° 0 mm 2 mps 722 mmHg 69%
    23:00 +13°C° 0 mm 3 mps 723 mmHg 70%

    28 June, Wednesday

    Time Temperature Precipitation Wind Pressure Humidity
    00:00 +13°C° 0 mm 2 mps 722 mmHg 72%
    01:00 +13°C° 0 mm 2 mps 722 mmHg 73%
    02:00 +12°C° 0 mm 2 mps 722 mmHg 74%
    03:00 +12°C° 0 mm 2 mps 722 mmHg 76%
    04:00 +10°C° 0 mm 2 mps 722 mmHg 78%
    05:00 +11°C° 0 mm 1 mps 722 mmHg 80%
    06:00 +11°C° 0 mm 1 mps 722 mmHg 80%
    07:00 +10°C° 0 mm 2 mps 723 mmHg 80%
    08:00 +10°C° 0 mm 2 mps 723 mmHg 79%
    09:00 +13°C° 0 mm 2 mps 723 mmHg 73%
    10:00 +15°C° 0 mm 2 mps 723 mmHg 67%
    11:00 +16°C° 0 mm 2 mps 723 mmHg 61%
    12:00 +17°C° 0 mm 2 mps 722 mmHg 58%
    13:00 +18°C° 0 mm 3 mps 721 mmHg 56%
    14:00 +19°C° 0 mm 3 mps 721 mmHg 53%
    15:00 +18°C° 0 mm 3 mps 721 mmHg 57%
    16:00 +17°C° 0 mm 2 mps 721 mmHg 60%
    17:00 +16°C° 0 mm 2 mps 721 mmHg 64%
    18:00 +15°C° 0 mm 2 mps 721 mmHg 70%
    19:00 +13°C° 0 mm 1 mps 722 mmHg 77%
    20:00 +11°C° 0 mm 1 mps 722 mmHg 83%
    21:00 +11°C° 0 mm 1 mps 723 mmHg 84%
    22:00 +11°C° 0 mm 1 mps 723 mmHg 84%
    23:00 +11°C° 0 mm 1 mps 723 mmHg 84%

    29 June, Thursday

    Time Temperature Precipitation Wind Pressure Humidity
    00:00 +11°C° 0 mm 1 mps 723 mmHg 85%
    01:00 +9°C° 0 mm 2 mps 723 mmHg 86%
    02:00 +9°C° 0 mm 2 mps 722 mmHg 86%
    03:00 +9°C° 0 mm 2 mps 722 mmHg 86%
    04:00 +9°C° 0 mm 2 mps 722 mmHg 85%
    05:00 +9°C° 0 mm 2 mps 722 mmHg 85%
    06:00 +9°C° 0 mm 2 mps 723 mmHg 82%
    07:00 +9°C° 0 mm 2 mps 723 mmHg 80%
    08:00 +10°C° 0 mm 2 mps 724 mmHg 77%
    09:00 +13°C° 0 mm 2 mps 724 mmHg 69%
    10:00 +15°C° 0 mm 2 mps 724 mmHg 61%
    11:00 +17°C° 0 mm 2 mps 724 mmHg 52%
    12:00 +18°C° 0 mm 2 mps 723 mmHg 51%
    13:00 +19°C° 0 mm 2 mps 722 mmHg 50%
    14:00 +20°C° 0 mm 2 mps 721 mmHg 48%
    15:00 +19°C° 0 mm 2 mps 721 mmHg 53%
    16:00 +18°C° 0 mm 2 mps 721 mmHg 58%
    17:00 +18°C° 0 mm 1 mps 721 mmHg 63%
    18:00 +16°C° 0 mm 1 mps 721 mmHg 69%
    19:00 +14°C° 0 mm 2 mps 721 mmHg 76%
    20:00 +13°C° 0 mm 2 mps 721 mmHg 82%
    21:00 +12°C° 0 mm 2 mps 721 mmHg 82%
    22:00 +12°C° 0 mm 2 mps 721 mmHg 82%
    23:00 +12°C° 0 mm 2 mps 721 mmHg 82%

    30 June, Friday

    Time Temperature Precipitation Wind Pressure Humidity
    00:00 +12°C° 0 mm 1 mps 721 mmHg 83%
    01:00 +11°C° 0 mm 1 mps 721 mmHg 84%
    02:00 +11°C° 0 mm 1 mps 720 mmHg 85%
    03:00 +11°C° 0 mm 1 mps 720 mmHg 85%
    04:00 +10°C° 0 mm 1 mps 721 mmHg 85%
    05:00 +9°C° 0 mm 0 mps 721 mmHg 85%
    06:00 +11°C° 0 mm 1 mps 721 mmHg 82%
    07:00 +12°C° 0 mm 1 mps 722 mmHg 80%
    08:00 +12°C° 0 mm 1 mps 723 mmHg 77%
    09:00 +15°C° 0 mm 1 mps 723 mmHg 69%
    10:00 +18°C° 0 mm 1 mps 723 mmHg 61%
    11:00 +20°C° 0 mm 2 mps 724 mmHg 53%
    12:00 +20°C° 0 mm 2 mps 723 mmHg 51%
    13:00 +21°C° 0 mm 2 mps 723 mmHg 50%
    14:00 +23°C° 0 mm 2 mps 722 mmHg 48%
    15:00 +21°C° 0 mm 2 mps 723 mmHg 53%
    16:00 +21°C° 0 mm 1 mps 723 mmHg 59%
    17:00 +20°C° 0 mm 1 mps 723 mmHg 64%
    18:00 +18°C° 0 mm 1 mps 723 mmHg 71%
    19:00 +15°C° 0 mm 1 mps 724 mmHg 79%
    20:00 +13°C° 0 mm 1 mps 724 mmHg 86%
    21:00 +12°C° 0 mm 0 mps 724 mmHg 87%
    22:00 +11°C° 0 mm 0 mps 724 mmHg 88%
    23:00 +11°C° 0 mm 0 mps 725 mmHg 88%
    Show more